Date String (YYYY-MM-DD hh:mm:ss) UTC,Instrument flags,absolute air pressure of the measurement (hPa),sample flow rate (lpm),inlet stack bypass flow (lpm),air temperature of the measurement (°C),ambient temperature measured by the external sensor (°C),aerosol sample conditioner tube jacket temperature (°C),OPC LED temperature (°C),internal box temperature (°C),relative humidity of the measurement (%),span deviation,mass concentration of particles derived from Lorenz-Mie calculation of OPC scattering (μg/m³),mass concentration of particles derived from Lorenz-Mie calculation of OPC scattering (μg/m³),mass concentration of particles derived from Lorenz-Mie calculation of OPC scattering (μg/m³)
DateTimeUTC,F1_M11,P_M11,Q1_M11,Q2_M11,T1_M11,T2_M11,T3_M11,T4_M11,T5_M11,U1_M11,ZSPAN_M11,X2_M11,X0_M11,X1_M11
2023-10-06 00:00:00,SystemResetWarning,0835.3,5.00,000.00,028.5,026.0,000.0,036.9,030.1,17.1,0000.0,0003.56,0012.20,0002.63
2023-10-06 00:01:00,SystemResetWarning,0835.3,5.00,000.00,028.5,026.4,000.0,036.9,030.1,17.4,0000.0,0003.56,0012.18,0002.64
2023-10-06 00:02:00,SystemResetWarning,0835.4,5.00,000.00,028.5,026.7,000.0,036.9,030.2,17.4,0000.0,0003.56,0012.34,0002.65
2023-10-06 00:03:00,SystemResetWarning,0835.4,5.00,000.00,028.6,026.9,000.0,036.9,030.3,17.3,0000.0,0003.55,0012.65,0002.64
2023-10-06 00:04:00,SystemResetWarning,0835.4,4.99,000.00,028.6,027.2,000.0,036.9,030.4,17.3,0000.0,0003.58,0012.74,0002.63
2023-10-06 00:05:00,SystemResetWarning,0835.5,5.00,000.00,028.6,027.3,000.0,036.9,030.4,17.2,0000.0,0003.61,0012.96,0002.63
2023-10-06 00:06:00,SystemResetWarning,0835.5,5.00,000.00,028.7,027.5,000.0,037.0,030.5,17.2,0000.0,0003.65,0013.29,0002.62
2023-10-06 00:07:00,SystemResetWarning,0835.5,5.00,000.00,028.7,027.6,000.0,037.0,030.5,17.2,0000.0,0003.59,0013.44,0002.61
2023-10-06 00:08:00,SystemResetWarning,0835.5,4.99,000.00,028.7,026.4,000.0,037.0,030.5,17.1,0000.0,0003.54,0013.41,0002.58
2023-10-06 00:09:00,SystemResetWarning,0835.5,5.00,000.00,028.7,025.1,000.0,036.9,030.3,17.2,0000.0,0003.50,0013.51,0002.56
2023-10-06 00:10:00,SystemResetWarning,0835.4,5.01,000.00,028.6,025.0,000.0,036.9,030.1,17.2,0000.0,0003.49,0012.14,0002.57
2023-10-06 00:11:00,SystemResetWarning,0835.5,5.00,000.00,028.5,025.3,000.0,036.9,030.0,17.3,0000.0,0003.48,0011.10,0002.56
2023-10-06 00:12:00,SystemResetWarning,0835.5,5.00,000.00,028.5,025.7,000.0,036.9,030.0,17.3,0000.0,0003.52,0010.83,0002.56
2023-10-06 00:13:00,SystemResetWarning,0835.5,5.00,000.00,028.5,026.1,000.0,036.9,030.1,17.3,0000.0,0003.57,0011.21,0002.55
2023-10-06 00:14:00,SystemResetWarning,0835.5,5.00,000.00,028.5,026.4,000.0,036.9,030.2,17.3,0000.0,0003.61,0011.21,0002.56
2023-10-06 00:15:00,SystemResetWarning,0835.5,4.99,000.00,028.5,026.7,000.0,036.9,030.2,17.3,0000.0,0003.60,0011.29,0002.58
2023-10-06 00:16:00,SystemResetWarning,0835.5,4.98,000.00,028.5,027.0,000.0,036.9,030.3,17.3,0000.0,0003.60,0011.54,0002.58
2023-10-06 00:17:00,SystemResetWarning,0835.5,5.00,000.00,028.6,027.2,000.0,036.9,030.4,17.3,0000.0,0003.55,0011.76,0002.57
2023-10-06 00:18:00,SystemResetWarning,0835.5,5.01,000.00,028.6,027.4,000.0,036.9,030.4,17.3,0000.0,0003.58,0011.03,0002.57
2023-10-06 00:19:00,SystemResetWarning,0835.5,5.01,000.00,028.7,027.5,000.0,037.0,030.5,17.3,0000.0,0003.59,0011.48,0002.58
2023-10-06 00:20:00,SystemResetWarning,0835.5,4.98,000.00,028.7,027.7,000.0,037.0,030.6,17.3,0000.0,0003.56,0011.80,0002.57
2023-10-06 00:21:00,SystemResetWarning,0835.5,4.99,000.00,028.7,027.1,000.0,037.0,030.5,17.3,0000.0,0003.56,0012.16,0002.55
2023-10-06 00:22:00,SystemResetWarning,0835.5,5.00,000.00,028.7,025.0,000.0,036.9,030.3,17.3,0000.0,0003.60,0011.91,0002.56
2023-10-06 00:23:00,SystemResetWarning,0835.6,5.01,000.00,028.6,023.9,000.0,036.9,030.0,17.5,0000.0,0003.61,0011.64,0002.56
2023-10-06 00:24:00,SystemResetWarning,0835.5,5.01,000.00,028.5,024.0,000.0,036.8,029.9,17.6,0000.0,0003.55,0011.05,0002.56
2023-10-06 00:25:00,SystemResetWarning,0835.5,5.00,000.00,028.3,024.4,000.0,036.8,029.7,17.8,0000.0,0003.49,0010.59,0002.53
2023-10-06 00:26:00,SystemResetWarning,0835.6,4.99,000.00,028.3,024.9,000.0,036.8,029.8,17.8,0000.0,0003.46,0010.25,0002.51
2023-10-06 00:27:00,SystemResetWarning,0835.5,5.00,000.00,028.3,025.4,000.0,036.8,029.8,17.8,0000.0,0003.42,0009.94,0002.50
2023-10-06 00:28:00,SystemResetWarning,0835.5,5.01,000.00,028.3,025.8,000.0,036.8,029.9,17.8,0000.0,0003.40,0009.45,0002.50
2023-10-06 00:29:00,SystemResetWarning,0835.6,5.01,000.00,028.3,026.2,000.0,036.8,030.0,17.7,0000.0,0003.40,0009.48,0002.49
2023-10-06 00:30:00,SystemResetWarning,0835.6,5.00,000.00,028.3,026.5,000.0,036.8,030.1,17.6,0000.0,0003.39,0009.90,0002.49
2023-10-06 00:31:00,SystemResetWarning,0835.6,4.99,000.00,028.4,026.8,000.0,036.8,030.1,17.5,0000.0,0003.41,0009.44,0002.51
2023-10-06 00:32:00,SystemResetWarning,0835.6,4.99,000.00,028.4,027.0,000.0,036.8,030.2,17.5,0000.0,0003.38,0009.69,0002.50
2023-10-06 00:33:00,SystemResetWarning,0835.6,5.00,000.00,028.4,027.2,000.0,036.8,030.2,17.4,0000.0,0003.33,0009.53,0002.48
2023-10-06 00:34:00,SystemResetWarning,0835.6,5.00,000.00,028.5,027.3,000.0,036.8,030.3,17.4,0000.0,0003.33,0010.09,0002.46
2023-10-06 00:35:00,SystemResetWarning,0835.6,5.00,000.00,028.5,027.5,000.0,036.8,030.4,17.3,0000.0,0003.36,0010.82,0002.46
2023-10-06 00:36:00,SystemResetWarning,0835.6,5.00,000.00,028.6,027.6,000.0,036.9,030.4,17.3,0000.0,0003.39,0012.07,0002.47
2023-10-06 00:37:00,SystemResetWarning,0835.6,5.00,000.00,028.6,027.7,000.0,036.9,030.5,17.2,0000.0,0003.41,0013.10,0002.47
2023-10-06 00:38:00,SystemResetWarning,0835.7,5.00,000.00,028.7,027.7,000.0,036.9,030.5,17.2,0000.0,0003.42,0014.01,0002.47
2023-10-06 00:39:00,SystemResetWarning,0835.7,4.98,000.00,028.7,026.3,000.0,036.9,030.4,17.1,0000.0,0003.46,0014.32,0002.47
2023-10-06 00:40:00,SystemResetWarning,0835.6,5.01,000.00,028.6,025.0,000.0,036.9,030.3,17.2,0000.0,0003.50,0014.38,0002.48
2023-10-06 00:41:00,SystemResetWarning,0835.6,5.01,000.00,028.5,024.9,000.0,036.8,030.1,17.2,0000.0,0003.50,0013.94,0002.47
2023-10-06 00:42:00,SystemResetWarning,0835.6,5.01,000.00,028.5,025.1,000.0,036.8,030.0,17.4,0000.0,0003.49,0014.06,0002.48
2023-10-06 00:43:00,SystemResetWarning,0835.9,4.99,000.00,028.4,025.5,000.0,036.9,030.0,17.4,0000.0,0003.52,0014.05,0002.48
2023-10-06 00:44:00,SystemResetWarning,0835.7,5.01,000.00,028.4,025.9,000.0,036.9,030.0,17.7,0000.0,0003.52,0014.72,0002.48
2023-10-06 00:45:00,SystemResetWarning,0835.7,5.00,000.00,028.4,026.2,000.0,036.9,030.1,18.0,0000.0,0003.51,0014.15,0002.48
2023-10-06 00:46:00,SystemResetWarning,0835.8,5.00,000.00,028.4,026.5,000.0,036.9,030.2,18.1,0000.0,0003.49,0013.75,0002.48
2023-10-06 00:47:00,SystemResetWarning,0835.8,5.00,000.00,028.5,026.8,000.0,036.9,030.2,18.2,0000.0,0003.50,0012.53,0002.49
2023-10-06 00:48:00,SystemResetWarning,0835.8,5.00,000.00,028.5,027.0,000.0,036.9,030.3,18.1,0000.0,0003.49,0011.33,0002.47
2023-10-06 00:49:00,SystemResetWarning,0835.8,5.00,000.00,028.5,027.2,000.0,036.9,030.3,18.0,0000.0,0003.51,0010.40,0002.47
2023-10-06 00:50:00,SystemResetWarning,0835.8,4.99,000.00,028.6,027.3,000.0,036.9,030.4,18.0,0000.0,0003.48,0010.68,0002.45
2023-10-06 00:51:00,SystemResetWarning,0835.8,5.00,000.00,028.6,027.5,000.0,037.0,030.4,18.0,0000.0,0003.45,0011.39,0002.45
2023-10-06 00:52:00,SystemResetWarning,0835.8,5.00,000.00,028.7,027.6,000.0,037.0,030.5,18.0,0000.0,0003.49,0012.39,0002.45
2023-10-06 00:53:00,SystemResetWarning,0835.9,5.00,000.00,028.7,027.6,000.0,037.0,030.5,17.8,0000.0,0003.52,0012.09,0002.45
2023-10-06 00:54:00,SystemResetWarning,0835.8,4.99,000.00,028.7,026.1,000.0,037.0,030.4,17.8,0000.0,0003.55,0012.39,0002.45
2023-10-06 00:55:00,SystemResetWarning,0835.8,5.01,000.00,028.6,024.8,000.0,036.9,030.2,17.9,0000.0,0003.58,0012.11,0002.45
2023-10-06 00:56:00,SystemResetWarning,0835.8,5.00,000.00,028.5,024.7,000.0,036.9,030.1,18.2,0000.0,0003.56,0012.94,0002.44
2023-10-06 00:57:00,SystemResetWarning,0835.8,5.00,000.00,028.4,025.0,000.0,036.9,029.9,18.5,0000.0,0003.54,0013.33,0002.45
2023-10-06 00:58:00,SystemResetWarning,0835.8,5.00,000.00,028.4,025.4,000.0,036.9,029.9,18.4,0000.0,0003.56,0014.11,0002.44
2023-10-06 00:59:00,SystemResetWarning,0835.8,4.99,000.00,028.4,025.8,000.0,036.9,030.0,18.3,0000.0,0003.57,0014.56,0002.45
